Location: Kampernieuwstad
(52.5135°N, 5.8742°E)
Time: 20:27:10
(UTC+00:00)

Meteor 2-9 Rocket - Pass Details

Date: 15 May 2026
Orbit: 790 x 893 km, 81.3° (Epoch: 6 June)

Event Time Altitude Azimuth Distance (km) Brightness Sun altitude
Rises 22:30:50 0° 346° (NNW) 3,319 9.1 -17.2°
Reaches altitude 10° 22:33:12 10° 347° (NNW) 2,393 7.9 -17.3°
Maximum altitude 22:38:37 88° 75° (ENE) 824 4.1 -17.5°
Enters shadow 22:41:25 30° 167° (SSE) 1,431 4.8 -17.6°
